KC3UTO Weather Reports


Display with metric or nautical units.
time (UTC)temp
F
wind
direction
speed
MPH
gust
MPH
rain 1hr
in
rain 24hr
in
rain mn
in
humidity
%
barometer
mb
20260506015634 72 186 2.0 5.0 0.00 0.00 0.00 44 1009.0
20260506015131 72 10 1.0 3.0 0.00 0.00 0.00 44 1008.9
20260506014629 73 13 0.0 3.0 0.00 0.00 0.00 43 1008.7
20260506014124 73 238 0.0 2.0 0.00 0.00 0.00 42 1008.8
20260506013623 74 89 2.0 6.0 0.00 0.00 0.00 41 1008.8
20260506013119 74 240 4.0 10.0 0.00 0.00 0.00 40 1008.9
20260506012616 74 50 0.0 5.0 0.00 0.00 0.00 41 1008.5
20260506012112 74 13 1.0 2.0 0.00 0.00 0.00 41 1008.4
20260506011610 74 99 0.0 11.0 0.00 0.00 0.00 40 1008.5
20260506011106 74 125 1.0 2.0 0.00 0.00 0.00 40 1008.4
20260506010606 74 74 1.0 4.0 0.00 0.00 0.00 39 1008.3
20260506005559 75 302 0.0 9.0 0.00 0.00 0.00 38 1008.3
20260506005055 75 341 1.0 3.0 0.00 0.00 0.00 38 1008.2
20260506004552 75 245 1.0 3.0 0.00 0.00 0.00 38 1008.2
20260506004049 75 235 5.0 6.0 0.00 0.00 0.00 38 1008.2
20260506003545 75 94 2.0 4.0 0.00 0.00 0.00 39 1008.3
20260506003042 75 256 2.0 4.0 0.00 0.00 0.00 38 1007.9
20260506002537 75 43 1.0 3.0 0.00 0.00 0.00 38 1008.1
20260506002033 75 256 6.0 6.0 0.00 0.00 0.00 37 1007.9
20260506001530 75 353 0.0 3.0 0.00 0.00 0.00 37 1007.9
20260506001027 76 230 4.0 6.0 0.00 0.00 0.00 37 1007.9
20260506000525 76 40 2.0 3.0 0.00 0.00 0.00 37 1007.8
20260506000022 76 309 0.0 3.0 0.00 0.00 0.00 37 1007.8
20260505235520 76 264 2.0 5.0 0.00 0.00 0.00 36 1007.7
20260505235016 77 79 0.0 3.0 0.00 0.00 0.00 36 1007.7
20260505234514 77 96 2.0 5.0 0.00 0.00 0.00 35 1007.9
20260505234010 77 225 6.0 10.0 0.00 0.00 0.00 36 1007.5
20260505233508 77 269 1.0 4.0 0.00 0.00 0.00 35 1007.6
20260505233005 77 342 2.0 13.0 0.00 0.00 0.00 35 1007.7
20260505232503 77 284 3.0 6.0 0.00 0.00 0.00 35 1007.9
20260505232000 77 211 6.0 9.0 0.00 0.00 0.00 35 1007.5
20260505231457 78 260 2.0 10.0 0.00 0.00 0.00 35 1007.5
20260505230955 78 258 3.0 10.0 0.00 0.00 0.00 35 1007.6
20260505230453 78 77 3.0 9.0 0.00 0.00 0.00 35 1007.4
20260505225949 78 46 2.0 4.0 0.00 0.00 0.00 36 1007.5
20260505225446 78 256 2.0 9.0 0.00 0.00 0.00 35 1007.5
20260505224942 79 233 4.0 5.0 0.00 0.00 0.00 34 1007.7
20260505224439 79 228 10.0 10.0 0.00 0.00 0.00 33 1007.2
20260505223936 79 280 3.0 11.0 0.00 0.00 0.00 33 1007.3
20260505223433 80 250 5.0 9.0 0.00 0.00 0.00 32 1007.4
20260505222929 80 243 2.0 12.0 0.00 0.00 0.00 31 1007.2
20260505222426 80 231 9.0 20.0 0.00 0.00 0.00 30 1007.2
20260505221922 80 253 7.0 15.0 0.00 0.00 0.00 30 1007.2
20260505221419 80 267 4.0 17.0 0.00 0.00 0.00 30 1007.4
20260505220916 80 252 4.0 11.0 0.00 0.00 0.00 31 1007.2
20260505220413 81 208 5.0 10.0 0.00 0.00 0.00 31 1007.3
20260505215911 80 265 3.0 13.0 0.00 0.00 0.00 31 1007.2
20260505215409 80 193 6.0 8.0 0.00 0.00 0.00 31 1007.1
20260505214906 80 303 3.0 11.0 0.00 0.00 0.00 31 1007.1
20260505214404 80 278 4.0 16.0 0.00 0.00 0.00 31 1007.3
20260505213901 81 241 4.0 13.0 0.00 0.00 0.00 31 1007.2
20260505213359 81 198 5.0 13.0 0.00 0.00 0.00 32 1007.3
20260505212854 80 234 2.0 10.0 0.00 0.00 0.00 32 1007.2
20260505212352 80 237 8.0 12.0 0.00 0.00 0.00 31 1007.3
20260505211848 80 206 4.0 12.0 0.00 0.00 0.00 33 1007.1
20260505211346 81 234 5.0 11.0 0.00 0.00 0.00 33 1007.2
20260505210842 81 244 5.0 6.0 0.00 0.00 0.00 33 1007.0
20260505210339 80 221 12.0 13.0 0.00 0.00 0.00 33 1007.0
20260505205835 80 223 4.0 12.0 0.00 0.00 0.00 32 1007.0
20260505205334 81 128 3.0 12.0 0.00 0.00 0.00 32 1007.2
20260505204830 81 340 2.0 17.0 0.00 0.00 0.00 32 1007.0
20260505204328 81 250 6.0 6.0 0.00 0.00 0.00 33 1007.2
20260505203826 81 53 0.0 10.0 0.00 0.00 0.00 32 1007.2
20260505203322 81 255 3.0 12.0 0.00 0.00 0.00 32 1007.2
20260505202818 81 230 5.0 9.0 0.00 0.00 0.00 32 1007.2
20260505202314 81 260 5.0 8.0 0.00 0.00 0.00 32 1007.2
20260505201811 82 86 1.0 6.0 0.00 0.00 0.00 33 1007.3
20260505201309 81 167 4.0 9.0 0.00 0.00 0.00 31 1007.5
20260505200807 82 120 2.0 12.0 0.00 0.00 0.00 32 1007.4
20260505200303 81 237 6.0 11.0 0.00 0.00 0.00 32 1007.4
20260505195758 81 228 9.0 11.0 0.00 0.00 0.00 33 1007.2
20260505195257 81 236 3.0 15.0 0.00 0.00 0.00 32 1007.3
20260505194753 82 180 2.0 11.0 0.00 0.00 0.00 30 1007.4
20260505194250 82 216 7.0 10.0 0.00 0.00 0.00 30 1007.3
20260505193746 81 251 4.0 13.0 0.00 0.00 0.00 31 1007.3
20260505193244 82 226 11.0 15.0 0.00 0.00 0.00 29 1007.4
20260505192742 82 239 8.0 9.0 0.00 0.00 0.00 30 1007.4
20260505192239 82 262 1.0 8.0 0.00 0.00 0.00 31 1007.5
20260505191737 82 252 4.0 18.0 0.00 0.00 0.00 30 1007.4
20260505191235 82 186 4.0 11.0 0.00 0.00 0.00 30 1007.6
20260505190731 82 206 3.0 9.0 0.00 0.00 0.00 30 1007.5
20260505190231 83 231 3.0 11.0 0.00 0.00 0.00 29 1007.5
20260505185728 83 331 1.0 14.0 0.00 0.00 0.00 30 1007.7
20260505185225 82 213 2.0 12.0 0.00 0.00 0.00 30 1007.9
20260505184720 83 254 9.0 12.0 0.00 0.00 0.00 29 1007.5
20260505184218 83 67 2.0 15.0 0.00 0.00 0.00 31 1007.9
20260505183715 83 250 6.0 12.0 0.00 0.00 0.00 30 1008.0
20260505183213 82 324 3.0 14.0 0.00 0.00 0.00 29 1007.7
20260505182708 83 200 3.0 15.0 0.00 0.00 0.00 29 1007.8
20260505182206 83 151 4.0 19.0 0.00 0.00 0.00 30 1007.9
20260505181702 83 243 7.0 10.0 0.00 0.00 0.00 29 1007.8
20260505181200 84 166 4.0 9.0 0.00 0.00 0.00 30 1007.9
20260505180655 83 233 9.0 13.0 0.00 0.00 0.00 29 1008.0
20260505180153 83 235 11.0 12.0 0.00 0.00 0.00 29 1008.1
20260505175648 83 235 5.0 8.0 0.00 0.00 0.00 29 1008.0
20260505175145 83 229 1.0 7.0 0.00 0.00 0.00 28 1008.1
20260505174642 83 192 2.0 5.0 0.00 0.00 0.00 31 1008.2
20260505174138 82 213 2.0 14.0 0.00 0.00 0.00 29 1008.3
20260505173635 82 269 7.0 16.0 0.00 0.00 0.00 27 1008.5
20260505173132 82 253 5.0 7.0 0.00 0.00 0.00 31 1008.2
20260505172629 83 196 8.0 18.0 0.00 0.00 0.00 28 1008.4
20260505172126 83 53 3.0 4.0 0.00 0.00 0.00 33 1008.4
20260505171620 82 138 4.0 16.0 0.00 0.00 0.00 31 1008.3
20260505171118 82 286 3.0 8.0 0.00 0.00 0.00 33 1008.4
20260505170615 81 228 3.0 4.0 0.00 0.00 0.00 34 1008.5
20260505170111 81 218 6.0 13.0 0.00 0.00 0.00 33 1008.5
20260505165606 81 268 4.0 11.0 0.00 0.00 0.00 34 1008.6
20260505165102 81 259 3.0 12.0 0.00 0.00 0.00 35 1008.8
20260505164558 81 276 6.0 8.0 0.00 0.00 0.00 34 1008.8
20260505164056 81 308 1.0 6.0 0.00 0.00 0.00 36 1008.7
20260505163554 80 236 2.0 7.0 0.00 0.00 0.00 34 1009.1
20260505163051 80 251 5.0 10.0 0.00 0.00 0.00 34 1009.3
20260505162549 80 231 12.0 13.0 0.00 0.00 0.00 35 1009.3
20260505162047 80 231 4.0 6.0 0.00 0.00 0.00 36 1009.1
20260505161543 80 241 5.0 9.0 0.00 0.00 0.00 37 1009.0
20260505161041 79 321 3.0 9.0 0.00 0.00 0.00 37 1009.3
20260505160538 79 277 4.0 9.0 0.00 0.00 0.00 36 1009.3
20260505153015 79 297 6.0 6.0 0.00 0.00 0.00 38 1009.5
20260505152512 78 282 4.0 5.0 0.00 0.00 0.00 38 1009.5
20260505152008 78 144 4.0 5.0 0.00 0.00 0.00 37 1009.7
20260505151503 78 269 3.0 4.0 0.00 0.00 0.00 38 1009.5
20260505151000 77 237 2.0 5.0 0.00 0.00 0.00 39 1009.6
20260505150457 77 242 6.0 8.0 0.00 0.00 0.00 37 1009.6
20260505140427 73 230 5.0 6.0 0.00 0.00 0.00 43 1010.3
20260505124840 68 57 2.0 3.0 0.00 0.00 0.00 56 1010.6
20260505124337 68 65 2.0 3.0 0.00 0.00 0.00 56 1010.7
20260505123833 68 202 0.0 3.0 0.00 0.00 0.00 54 1010.5
20260505123330 67 50 2.0 2.0 0.00 0.00 0.00 58 1010.6
20260505122826 66 43 0.0 2.0 0.00 0.00 0.00 58 1010.4
20260505122324 66 14 2.0 2.0 0.00 0.00 0.00 60 1010.5
20260505121820 65 13 2.0 3.0 0.00 0.00 0.00 62 1010.5
20260505121317 64 17 0.0 2.0 0.00 0.00 0.00 63 1010.5
20260505120813 64 55 3.0 3.0 0.00 0.00 0.00 65 1010.4
20260505120309 63 29 1.0 2.0 0.00 0.00 0.00 66 1010.4
20260505115808 62 341 0.0 2.0 0.00 0.00 0.00 69 1010.1
20260505115306 60 52 2.0 3.0 0.00 0.00 0.00 73 1010.3
20260505114803 58 31 2.0 2.0 0.00 0.00 0.00 77 1010.4
20260505114300 57 273 1.0 1.0 0.00 0.00 0.00 79 1010.3
20260505113756 56 28 0.0 2.0 0.00 0.00 0.00 80 1010.2
20260505113252 55 50 0.0 1.0 0.00 0.00 0.00 81 1010.1
20260505112748 54 44 0.0 1.0 0.00 0.00 0.00 82 1010.1
20260505112246 54 34 1.0 2.0 0.00 0.00 0.00 84 1010.1
20260505111747 53 30 2.0 2.0 0.00 0.00 0.00 85 1010.2
20260505111243 53 44 2.0 3.0 0.00 0.00 0.00 86 1010.1
20260505110739 52 36 2.0 2.0 0.00 0.00 0.00 86 1010.2
20260505110237 51 41 2.0 2.0 0.00 0.00 0.00 87 1009.9
20260505102212 49 61 2.0 3.0 0.00 0.00 0.00 90 1010.0
20260505101711 49 66 2.0 2.0 0.00 0.00 0.00 89 1009.6
20260505101206 50 35 2.0 3.0 0.00 0.00 0.00 89 1009.8
20260505100703 50 48 3.0 3.0 0.00 0.00 0.00 89 1009.6
20260505100200 50 53 2.0 3.0 0.00 0.00 0.00 88 1009.5
20260505095655 51 32 1.0 2.0 0.00 0.00 0.00 88 1009.6
20260505095153 51 44 1.0 1.0 0.00 0.00 0.00 88 1009.4
20260505094649 51 356 1.0 2.0 0.00 0.00 0.00 88 1009.6
20260505094145 52 49 0.0 2.0 0.00 0.00 0.00 87 1009.6
20260505093642 52 26 3.0 3.0 0.00 0.00 0.00 86 1009.5
20260505093139 52 71 0.0 2.0 0.00 0.00 0.00 86 1009.6
20260505092636 52 59 2.0 3.0 0.00 0.00 0.00 85 1009.7
20260505092135 52 58 2.0 3.0 0.00 0.00 0.00 84 1009.9
20260505091631 53 30 2.0 3.0 0.00 0.00 0.00 84 1009.7
20260505091130 53 32 2.0 2.0 0.00 0.00 0.00 84 1009.8
20260505090627 53 38 2.0 3.0 0.00 0.00 0.00 82 1009.6
20260505090125 53 31 2.0 3.0 0.00 0.00 0.00 81 1009.8
20260505085622 53 13 2.0 3.0 0.00 0.00 0.00 80 1009.7
20260505085120 53 31 2.0 3.0 0.00 0.00 0.00 79 1009.6
20260505084618 53 358 2.0 2.0 0.00 0.00 0.00 79 1009.6
20260505084116 53 40 2.0 3.0 0.00 0.00 0.00 79 1009.4
20260505083613 52 25 1.0 2.0 0.00 0.00 0.00 79 1009.2
20260505083109 52 8 1.0 2.0 0.00 0.00 0.00 80 1009.3
20260505082605 52 26 2.0 3.0 0.00 0.00 0.00 80 1009.3
20260505082103 52 13 1.0 2.0 0.00 0.00 0.00 80 1009.3
20260505081559 53 25 2.0 2.0 0.00 0.00 0.00 79 1009.3
20260505081056 53 50 2.0 2.0 0.00 0.00 0.00 79 1009.2
20260505080552 53 27 2.0 3.0 0.00 0.00 0.00 78 1009.3
20260505080049 53 0 0.0 2.0 0.00 0.00 0.00 78 1009.4
20260505075544 53 50 2.0 2.0 0.00 0.00 0.00 78 1009.2
20260505075042 53 36 2.0 3.0 0.00 0.00 0.00 77 1009.2
20260505074538 53 19 2.0 2.0 0.00 0.00 0.00 77 1009.2
20260505074036 53 19 1.0 2.0 0.00 0.00 0.00 78 1009.5
20260505073533 53 26 2.0 3.0 0.00 0.00 0.00 78 1009.3
20260505073032 53 34 2.0 2.0 0.00 0.00 0.00 78 1009.4
20260505072527 53 17 1.0 2.0 0.00 0.00 0.00 78 1009.4
20260505072023 53 33 2.0 2.0 0.00 0.00 0.00 78 1009.4
20260505071519 52 18 0.0 2.0 0.00 0.00 0.00 78 1009.3
20260505071017 52 54 2.0 2.0 0.00 0.00 0.00 77 1009.3
20260505070514 52 20 1.0 2.0 0.00 0.00 0.00 77 1009.5
20260505070010 52 30 2.0 2.0 0.00 0.00 0.00 77 1009.6
20260505065506 52 18 2.0 2.0 0.00 0.00 0.00 76 1009.4
20260505065003 52 47 2.0 2.0 0.00 0.00 0.00 77 1009.4
20260505064500 52 68 2.0 3.0 0.00 0.00 0.00 77 1009.3
20260505063958 52 10 0.0 2.0 0.00 0.00 0.00 76 1009.7
20260505063455 52 41 2.0 2.0 0.00 0.00 0.00 75 1009.3
20260505062951 52 65 2.0 2.0 0.00 0.00 0.00 75 1009.4
20260505062448 52 27 2.0 2.0 0.00 0.00 0.00 74 1009.5
20260505061944 52 42 2.0 2.0 0.00 0.00 0.00 74 1009.5
20260505061443 52 16 1.0 2.0 0.00 0.00 0.00 74 1009.6
20260505060940 52 31 2.0 2.0 0.00 0.00 0.00 73 1009.6
20260505060437 52 25 2.0 3.0 0.00 0.00 0.00 73 1009.4
20260505055933 52 37 2.0 2.0 0.00 0.00 0.00 73 1009.5
20260505055429 52 37 1.0 3.0 0.00 0.00 0.00 72 1009.5
20260505054926 53 19 2.0 3.0 0.00 0.00 0.00 71 1009.6
20260505054424 53 22 2.0 3.0 0.00 0.00 0.00 69 1009.4
20260505053922 54 19 2.0 4.0 0.00 0.00 0.00 67 1009.4
20260505053418 54 38 1.0 2.0 0.00 0.00 0.00 66 1009.4
20260505052915 54 52 2.0 2.0 0.00 0.00 0.00 65 1009.5
20260505052412 54 50 3.0 3.0 0.00 0.00 0.00 65 1009.4
20260505051909 54 32 3.0 4.0 0.00 0.00 0.00 66 1009.3
20260505051407 53 33 2.0 3.0 0.00 0.00 0.00 67 1009.4
20260505050905 53 32 2.0 2.0 0.00 0.00 0.00 67 1009.4
20260505050403 53 52 2.0 3.0 0.00 0.00 0.00 68 1009.2
20260505041330 53 44 2.0 2.0 0.00 0.00 0.00 68 1009.5
20260505040827 53 54 2.0 2.0 0.00 0.00 0.00 68 1009.3
20260505040325 53 28 2.0 3.0 0.00 0.00 0.00 67 1009.3
20260505035821 54 59 1.0 2.0 0.00 0.00 0.00 67 1009.3
20260505035317 54 32 2.0 3.0 0.00 0.00 0.00 66 1009.3
20260505034815 54 36 1.0 4.0 0.00 0.00 0.00 65 1009.2
20260505034311 55 0 1.0 2.0 0.00 0.00 0.00 66 1009.0
20260505033808 55 26 2.0 3.0 0.00 0.00 0.00 64 1009.1
20260505033305 55 36 2.0 3.0 0.00 0.00 0.00 63 1009.3
20260505032804 55 41 2.0 2.0 0.00 0.00 0.00 62 1009.1
20260505032259 55 28 2.0 2.0 0.00 0.00 0.00 61 1009.2
20260505031756 55 59 2.0 3.0 0.00 0.00 0.00 61 1009.1
20260505031252 56 63 2.0 2.0 0.00 0.00 0.00 61 1009.4
20260505030750 56 40 2.0 3.0 0.00 0.00 0.00 60 1009.4
20260505030246 56 23 2.0 2.0 0.00 0.00 0.00 60 1009.3
20260505025742 56 44 2.0 3.0 0.00 0.00 0.00 60 1009.4
20260505025240 56 34 2.0 3.0 0.00 0.00 0.00 60 1009.4
20260505024738 56 26 2.0 3.0 0.00 0.00 0.00 60 1009.3
20260505024235 57 35 2.0 3.0 0.00 0.00 0.00 59 1009.3
20260505023732 57 44 2.0 3.0 0.00 0.00 0.00 58 1009.4
20260505023229 57 29 2.0 3.0 0.00 0.00 0.00 58 1009.4
20260505022727 57 60 2.0 3.0 0.00 0.00 0.00 58 1009.5
20260505022224 57 45 2.0 2.0 0.00 0.00 0.00 57 1009.3
20260505021720 58 60 2.0 3.0 0.00 0.00 0.00 57 1009.6
20260505021217 58 53 2.0 3.0 0.00 0.00 0.00 56 1009.4
20260505020713 59 45 2.0 3.0 0.00 0.00 0.00 55 1009.7
20260505020208 59 43 2.0 3.0 0.00 0.00 0.00 54 1009.4